Flag for U.S.A. Weather past 2 weeks in Duluth, Minnesota, U.S.A.

Now
57 °F

Passing clouds.


Feels Like: 57 °F
Forecast: 57 / 72 °F
Wind: No wind

Location: Sky Harbor Airport

Current Time: Jul 25, 2014 at 6:55:55 AM

Latest Report: Jul 25, 2014 at 6:34 AM


Visibility: 10 mi

Pressure: 29.85 "Hg

Humidity: 94%

Dew point: 55 °F

Location of DuluthLocation

Historic Weather in Duluth — Graph

°F

Duluth temperature yesterday

Maximum temperature yesterday: 66 °F (at 1:14 PM)
Minimum temperature yesterday: 55 °F (at 12:13 AM)
Average temperature yesterday: 61 °F

Past Weeks' High & Low Weather Summary

 TemperatureHumidityPressure
High91 °F (Jul 21, 3:13 PM)100% (Jul 11, 6:53 AM)30.26 "Hg (Jul 11, 6:53 AM)
Low48 °F (Jul 16, 4:34 AM)36% (Jul 16, 4:34 PM)29.68 "Hg (Jul 22, 4:13 AM)
Average64 °F78%29.96 "Hg
* Reported Jul 10 5:14 AM — Jul 25 5:34 AM, Duluth, Weather by CustomWeather, © 2014

Note: Actual official high and low records may vary slightly from our data, if they occured in-between our weather recording intervals... More about our weather records

Advertising

Duluth weather history for previous 24 hours

 ConditionsComfort  
Time TempWeatherWind HumidityBarometerVisibility
5:34 AM
Jul 25
57 °FPassing clouds.6 mph94%29.84 "Hg10 mi
5:13 AM59 °FOvercast.7 mph88%29.85 "Hg10 mi
4:53 AM59 °FOvercast.3 mph88%29.85 "Hg10 mi
4:34 AM59 °FThundershowers. Overcast.No wind88%29.86 "Hg10 mi
3:53 AM59 °FPassing clouds.6 mph88%29.88 "Hg10 mi
3:34 AM59 °FOvercast.6 mph88%29.90 "Hg10 mi
3:13 AM59 °FOvercast.7 mph88%29.88 "Hg10 mi
2:53 AM59 °FPassing clouds.8 mph88%29.87 "Hg10 mi
2:33 AM59 °FPassing clouds.7 mph88%29.87 "Hg10 mi
2:13 AM59 °FPassing clouds.7 mph88%29.88 "Hg10 mi
1:53 AM61 °FPartly cloudy.8 mph83%29.90 "Hg10 mi
1:33 AM61 °FPassing clouds.9 mph83%29.90 "Hg10 mi
1:14 AM61 °FPassing clouds.9 mph83%29.91 "Hg10 mi
12:53 AM61 °FClear.10 mph88%29.91 "Hg10 mi
12:33 AM61 °FClear.9 mph88%29.91 "Hg10 mi
12:14 AM63 °FClear.9 mph83%29.91 "Hg10 mi
11:53 PM
Jul 24
63 °FClear.6 mph88%29.90 "Hg10 mi
11:33 PM64 °FClear.3 mph78%29.90 "Hg10 mi
11:14 PM63 °FClear.3 mph88%29.90 "Hg10 mi
10:53 PM64 °FClear.3 mph83%29.91 "Hg10 mi
10:33 PM64 °FPassing clouds.5 mph78%29.92 "Hg10 mi
9:53 PM64 °FClear.5 mph78%29.95 "Hg10 mi
9:33 PM64 °FSunny.7 mph78%29.96 "Hg10 mi
9:13 PM64 °FSunny.7 mph78%29.96 "Hg10 mi
8:53 PM64 °FSunny.8 mph78%29.97 "Hg10 mi
8:34 PM64 °FSunny.5 mph78%29.97 "Hg10 mi
8:13 PM64 °FSunny.3 mph78%29.97 "Hg10 mi
7:53 PM64 °FSunny.6 mph78%29.95 "Hg10 mi
7:34 PM64 °FSunny.7 mph78%29.96 "Hg10 mi
7:11 PM64 °FSunny.3 mph78%29.94 "Hg10 mi
6:54 PM64 °FSunny.6 mph78%29.93 "Hg10 mi
6:33 PM64 °FSunny.5 mph78%29.93 "Hg10 mi
6:13 PM64 °FSunny.7 mph78%29.93 "Hg10 mi
5:53 PM64 °FSunny.7 mph73%29.94 "Hg10 mi
5:33 PM64 °FSunny.6 mph73%29.96 "Hg10 mi
5:14 PM64 °FSunny.5 mph78%29.96 "Hg10 mi
4:53 PM64 °FScattered clouds.7 mph78%29.97 "Hg10 mi
4:33 PM64 °FScattered clouds.6 mph78%29.97 "Hg10 mi
4:13 PM64 °FSunny.3 mph83%30.00 "Hg10 mi
3:54 PM64 °FSunny.6 mph83%30.01 "Hg10 mi
3:33 PM63 °FSunny.5 mph88%30.03 "Hg10 mi
3:14 PM64 °FSunny.5 mph83%30.04 "Hg10 mi
2:53 PM66 °FScattered clouds.7 mph83%30.04 "Hg10 mi
2:33 PM64 °FScattered clouds.3 mph88%30.04 "Hg10 mi
2:14 PM66 °FSunny.6 mph73%30.05 "Hg10 mi
1:53 PM66 °FSunny.6 mph78%30.05 "Hg10 mi
1:33 PM66 °FSunny.8 mph78%30.06 "Hg10 mi
1:14 PM66 °FSunny.5 mph78%30.08 "Hg10 mi
12:53 PM64 °FSunny.7 mph78%30.09 "Hg10 mi
12:34 PM63 °FSunny.6 mph83%30.10 "Hg10 mi
12:13 PM63 °FSunny.6 mph83%30.10 "Hg10 mi
11:54 AM63 °FSunny.5 mph83%30.10 "Hg10 mi
11:33 AM63 °FSunny.5 mph83%30.11 "Hg10 mi
11:13 AM63 °FSunny.5 mph83%30.11 "Hg10 mi
10:54 AM63 °FSunny.5 mph83%30.13 "Hg10 mi
10:33 AM61 °FSunny.5 mph83%30.13 "Hg10 mi
10:14 AM61 °FSunny.No wind83%30.15 "Hg10 mi
9:53 AM61 °FSunny.No wind83%30.16 "Hg10 mi
9:33 AM59 °FSunny.3 mph88%30.16 "Hg10 mi
9:14 AM59 °FSunny.3 mph88%30.16 "Hg10 mi
8:53 AM59 °FFog.3 mph88%30.16 "Hg5 mi
8:33 AM57 °FFog.3 mph94%30.16 "Hg2 mi
8:14 AM57 °FFog.3 mph94%30.16 "Hg1 mi
7:53 AM55 °FFog.No wind94%30.17 "Hg0 mi
7:34 AM55 °FFog.3 mph94%30.17 "Hg0 mi
7:13 AM57 °FFog.No wind94%30.18 "Hg1 mi
6:53 AM57 °FScattered clouds.No wind94%30.18 "Hg10 mi
6:34 AM57 °FPassing clouds.3 mph94%30.18 "Hg10 mi
6:13 AM57 °FPassing clouds.3 mph94%30.19 "Hg10 mi
Weather by CustomWeather, © 2014

See weather overviewHow to use our weather pages